Volver al catálogo

STARLINK-36242

ActivoComunicacionesVLEO
NORAD 68958·PAYLOAD·🇺🇸 United States

Lanzado May 1, 2026 desde Cape Canaveral Space Force Station

Loading…

Próximos Pases (próximas 24 horas)

TLE

ActualizadoSource: CelesTrak SupGP

Época: Sep 14, 2026, 21:06 UTC

1 68958C 26099H   26257.87965278  .00070826  00000+0  20909-2 0  2577
2 68958  53.1576 102.1680 0001286  77.2423 154.2093 15.34381162    14

Sigue STARLINK-36242 en tiempo real con AllMySat

Download on the App Store